When you browse on this site, cookies collect data to enhance your experience and personalize the content and advertising you see.
Visit our Privacy Policy to learn more. By continuing to use the site, you agree to this use of cookies and data.
  • In United Kingdom
  • List of Countries
  • For 7 days
  • Water Temperature
  • Weather Map
  • Weather Widgets
  • user-avatar
    Login

    Hourly Weather Pyla

    Today, 23 August, Friday

    Time Temperature Precipitation Wind Pressure Humidity
    00:00 +16°C° 0 mm 1 mps 740 mmHg 93%
    01:00 +16°C° 0 mm 1 mps 740 mmHg 94%
    02:00 +16°C° 0 mm 1 mps 740 mmHg 96%
    03:00 +15°C° 0.1 mm 1 mps 740 mmHg 96%
    04:00 +15°C° 0.1 mm 1 mps 740 mmHg 97%
    05:00 +15°C° 0.1 mm 1 mps 740 mmHg 97%
    06:00 +16°C° 0 mm 2 mps 740 mmHg 95%
    07:00 +17°C° 0 mm 2 mps 740 mmHg 93%
    08:00 +18°C° 0 mm 2 mps 741 mmHg 90%
    09:00 +19°C° 0 mm 2 mps 741 mmHg 85%
    10:00 +20°C° 0 mm 2 mps 741 mmHg 80%
    11:00 +23°C° 0 mm 2 mps 741 mmHg 75%
    12:00 +23°C° 0 mm 2 mps 740 mmHg 73%
    13:00 +24°C° 0 mm 2 mps 740 mmHg 71%
    14:00 +24°C° 0 mm 2 mps 740 mmHg 69%
    15:00 +24°C° 0 mm 2 mps 740 mmHg 69%
    16:00 +24°C° 0 mm 2 mps 740 mmHg 69%
    17:00 +24°C° 0 mm 2 mps 740 mmHg 70%
    18:00 +23°C° 0 mm 2 mps 740 mmHg 72%
    19:00 +21°C° 0 mm 2 mps 740 mmHg 74%
    20:00 +20°C° 0 mm 2 mps 740 mmHg 76%
    21:00 +20°C° 0 mm 2 mps 740 mmHg 79%
    22:00 +19°C° 0 mm 2 mps 740 mmHg 82%
    23:00 +18°C° 0 mm 2 mps 740 mmHg 85%

    Tomorrow, 24 August, Saturday

    Time Temperature Precipitation Wind Pressure Humidity
    00:00 +17°C° 0 mm 2 mps 740 mmHg 86%
    01:00 +16°C° 0 mm 2 mps 739 mmHg 88%
    02:00 +16°C° 0 mm 2 mps 739 mmHg 89%
    03:00 +16°C° 0 mm 2 mps 739 mmHg 89%
    04:00 +15°C° 0 mm 2 mps 739 mmHg 90%
    05:00 +15°C° 0 mm 2 mps 739 mmHg 90%
    06:00 +16°C° 0 mm 2 mps 739 mmHg 87%
    07:00 +17°C° 0 mm 2 mps 739 mmHg 83%
    08:00 +18°C° 0 mm 2 mps 739 mmHg 80%
    09:00 +20°C° 0 mm 3 mps 739 mmHg 74%
    10:00 +22°C° 0 mm 3 mps 739 mmHg 69%
    11:00 +25°C° 0 mm 3 mps 740 mmHg 64%
    12:00 +25°C° 0 mm 3 mps 739 mmHg 62%
    13:00 +26°C° 0 mm 3 mps 739 mmHg 60%
    14:00 +27°C° 0 mm 3 mps 739 mmHg 58%
    15:00 +27°C° 0.1 mm 3 mps 738 mmHg 60%
    16:00 +26°C° 0.1 mm 3 mps 738 mmHg 62%
    17:00 +26°C° 0.1 mm 3 mps 738 mmHg 64%
    18:00 +24°C° 0 mm 3 mps 738 mmHg 69%
    19:00 +21°C° 0 mm 3 mps 738 mmHg 75%
    20:00 +20°C° 0 mm 2 mps 738 mmHg 80%
    21:00 +19°C° 0 mm 2 mps 738 mmHg 82%
    22:00 +18°C° 0 mm 2 mps 738 mmHg 84%
    23:00 +17°C° 0 mm 2 mps 738 mmHg 86%

    Day after tomorrow, 25 August, Sunday

    Time Temperature Precipitation Wind Pressure Humidity
    00:00 +17°C° 0 mm 2 mps 738 mmHg 88%
    01:00 +17°C° 0 mm 2 mps 738 mmHg 89%
    02:00 +16°C° 0 mm 2 mps 738 mmHg 90%
    03:00 +16°C° 0 mm 2 mps 738 mmHg 91%
    04:00 +16°C° 0 mm 2 mps 737 mmHg 92%
    05:00 +16°C° 0 mm 2 mps 737 mmHg 93%
    06:00 +17°C° 0 mm 2 mps 737 mmHg 89%
    07:00 +18°C° 0 mm 2 mps 737 mmHg 85%
    08:00 +19°C° 0 mm 3 mps 738 mmHg 81%
    09:00 +21°C° 0.1 mm 3 mps 738 mmHg 77%
    10:00 +22°C° 0.1 mm 3 mps 738 mmHg 72%
    11:00 +25°C° 0.1 mm 3 mps 738 mmHg 67%
    12:00 +26°C° 0.1 mm 3 mps 738 mmHg 65%
    13:00 +27°C° 0.1 mm 3 mps 737 mmHg 62%
    14:00 +28°C° 0.1 mm 3 mps 737 mmHg 59%
    15:00 +28°C° 0.1 mm 3 mps 737 mmHg 61%
    16:00 +28°C° 0.1 mm 3 mps 737 mmHg 63%
    17:00 +28°C° 0.1 mm 3 mps 737 mmHg 64%
    18:00 +26°C° 0 mm 3 mps 737 mmHg 70%
    19:00 +24°C° 0 mm 3 mps 737 mmHg 75%
    20:00 +21°C° 0 mm 3 mps 737 mmHg 81%
    21:00 +21°C° 0 mm 3 mps 737 mmHg 81%
    22:00 +20°C° 0 mm 3 mps 737 mmHg 82%
    23:00 +19°C° 0 mm 3 mps 738 mmHg 82%

    26 August, Monday

    Time Temperature Precipitation Wind Pressure Humidity
    00:00 +19°C° 0 mm 3 mps 737 mmHg 82%
    01:00 +18°C° 0 mm 3 mps 737 mmHg 82%
    02:00 +18°C° 0 mm 3 mps 737 mmHg 81%
    03:00 +17°C° 0 mm 2 mps 737 mmHg 81%
    04:00 +17°C° 0 mm 2 mps 737 mmHg 81%
    05:00 +17°C° 0 mm 2 mps 737 mmHg 81%
    06:00 +18°C° 0 mm 2 mps 737 mmHg 78%
    07:00 +19°C° 0 mm 2 mps 737 mmHg 76%
    08:00 +20°C° 0 mm 3 mps 737 mmHg 74%
    09:00 +22°C° 0.1 mm 3 mps 737 mmHg 68%
    10:00 +25°C° 0.1 mm 3 mps 737 mmHg 63%
    11:00 +27°C° 0.1 mm 3 mps 737 mmHg 58%
    12:00 +28°C° 0.2 mm 3 mps 737 mmHg 56%
    13:00 +29°C° 0.2 mm 3 mps 737 mmHg 54%
    14:00 +30°C° 0.2 mm 3 mps 737 mmHg 52%
    15:00 +29°C° 0.2 mm 3 mps 737 mmHg 54%
    16:00 +29°C° 0.2 mm 3 mps 737 mmHg 56%
    17:00 +29°C° 0.2 mm 2 mps 736 mmHg 59%
    18:00 +27°C° 0 mm 2 mps 736 mmHg 62%
    19:00 +25°C° 0 mm 2 mps 736 mmHg 66%
    20:00 +23°C° 0 mm 2 mps 736 mmHg 70%
    21:00 +21°C° 0.1 mm 2 mps 736 mmHg 70%
    22:00 +20°C° 0.1 mm 2 mps 736 mmHg 71%
    23:00 +19°C° 0.1 mm 2 mps 736 mmHg 72%

    27 August, Tuesday

    Time Temperature Precipitation Wind Pressure Humidity
    00:00 +19°C° 0 mm 2 mps 736 mmHg 73%
    01:00 +18°C° 0 mm 2 mps 736 mmHg 74%
    02:00 +18°C° 0 mm 2 mps 736 mmHg 75%
    03:00 +17°C° 0 mm 2 mps 736 mmHg 77%
    04:00 +17°C° 0 mm 2 mps 736 mmHg 79%
    05:00 +18°C° 0 mm 1 mps 736 mmHg 80%
    06:00 +19°C° 0 mm 1 mps 736 mmHg 77%
    07:00 +20°C° 0 mm 2 mps 737 mmHg 74%
    08:00 +21°C° 0 mm 2 mps 737 mmHg 70%
    09:00 +24°C° 0 mm 2 mps 737 mmHg 63%
    10:00 +26°C° 0 mm 2 mps 737 mmHg 56%
    11:00 +28°C° 0 mm 3 mps 737 mmHg 49%
    12:00 +29°C° 0 mm 3 mps 737 mmHg 47%
    13:00 +30°C° 0 mm 3 mps 737 mmHg 44%
    14:00 +31°C° 0 mm 3 mps 737 mmHg 41%
    15:00 +30°C° 0 mm 3 mps 737 mmHg 44%
    16:00 +30°C° 0 mm 3 mps 736 mmHg 47%
    17:00 +29°C° 0 mm 3 mps 736 mmHg 50%
    18:00 +27°C° 0 mm 2 mps 736 mmHg 56%
    19:00 +24°C° 0 mm 2 mps 736 mmHg 62%
    20:00 +21°C° 0 mm 2 mps 736 mmHg 67%
    21:00 +21°C° 0 mm 1 mps 736 mmHg 68%
    22:00 +20°C° 0 mm 1 mps 736 mmHg 69%
    23:00 +19°C° 0 mm 1 mps 736 mmHg 70%

    28 August, Wednesday

    Time Temperature Precipitation Wind Pressure Humidity
    00:00 +19°C° 0 mm 1 mps 736 mmHg 70%
    01:00 +18°C° 0 mm 1 mps 736 mmHg 71%
    02:00 +18°C° 0 mm 1 mps 736 mmHg 72%
    03:00 +18°C° 0 mm 1 mps 736 mmHg 72%
    04:00 +16°C° 0 mm 1 mps 736 mmHg 72%
    05:00 +16°C° 0 mm 1 mps 736 mmHg 72%
    06:00 +18°C° 0 mm 2 mps 736 mmHg 69%
    07:00 +19°C° 0 mm 2 mps 736 mmHg 67%
    08:00 +21°C° 0 mm 2 mps 736 mmHg 64%
    09:00 +24°C° 0 mm 2 mps 736 mmHg 59%
    10:00 +26°C° 0 mm 2 mps 736 mmHg 54%
    11:00 +28°C° 0 mm 3 mps 736 mmHg 49%
    12:00 +29°C° 0 mm 3 mps 736 mmHg 46%
    13:00 +30°C° 0 mm 3 mps 736 mmHg 44%
    14:00 +31°C° 0 mm 3 mps 735 mmHg 41%
    15:00 +30°C° 0 mm 2 mps 735 mmHg 44%
    16:00 +30°C° 0 mm 2 mps 735 mmHg 46%
    17:00 +30°C° 0 mm 2 mps 734 mmHg 49%
    18:00 +27°C° 0 mm 2 mps 734 mmHg 55%
    19:00 +25°C° 0 mm 2 mps 734 mmHg 61%
    20:00 +23°C° 0 mm 2 mps 734 mmHg 67%
    21:00 +21°C° 0 mm 2 mps 734 mmHg 68%
    22:00 +20°C° 0 mm 2 mps 734 mmHg 69%
    23:00 +19°C° 0 mm 2 mps 734 mmHg 71%
    Show more